Location: Qazi Observatory
(41.6337°N, 88.1517°W)
Time: 18:54:47
(UTC-05:00)

Amateur Radio Satellites - All Passes

Search period start: 21 August 2014 18:24
Search period end: 22 August 2014 18:24
Location: Qazi Observatory, 41.6337°N, 88.1517°W

Satellite Date Start Highest point End Downlink Frequencies (MHz)
Time Altitude Azimuth
Sapphire 21 Aug 18:27:44 18:32:04 25° 108° (ESE) 18:36:26 437.095 MHz 1200 baud AX-25 AFSK
ISS 21 Aug 18:30:55 18:33:08 16° 10° (N) 18:35:21 145.800 FM
UOSAT-12 21 Aug 18:32:58 18:35:36 15° 252° (WSW) 18:38:13 437.025 FM, 437.400 FM
PANSAT 21 Aug 18:49:51 18:51:05 11° 183° (S) 18:52:19 not established
PCSat 21 Aug 18:57:15 19:02:26 49° 113° (ESE) 19:07:39 145.825 MHz
STRAND 1 21 Aug 18:59:27 19:03:50 29° 96° (E) 19:08:12 ?
OPAL 21 Aug 19:12:49 19:15:10 13° 304° (NW) 19:17:30 ?
HO-68 21 Aug 19:21:35 19:26:23 20° 55° (NE) 19:31:10 435.675 MHz FM
SO-67 21 Aug 19:39:22 19:42:39 41° 262° (W) 19:45:58 435.3500 MHz FM
JAS-2 21 Aug 19:42:11 19:46:38 19° 267° (W) 19:50:49 435.800 - 435.900 CW/SSB, 435.910 FM
ISS 21 Aug 20:07:16 20:10:30 45° 29° (NNE) 20:13:43 145.800 FM
Sapphire 21 Aug 20:10:00 20:15:12 47° 305° (NW) 20:20:26 437.095 MHz 1200 baud AX-25 AFSK
RS-15 21 Aug 20:24:26 20:33:54 34° 254° (WSW) 20:43:43 29.354 - 29.394 USB, Beacon 29.352 USB
STRAND 1 21 Aug 20:38:28 20:43:02 34° 292° (WNW) 20:47:36 ?
PCSat 21 Aug 20:41:33 20:46:06 27° 312° (NW) 20:50:41 145.825 MHz
UKube-1 21 Aug 20:46:13 20:50:03 31° 69° (ENE) 20:53:55 145.840 MHz, 145.915 MHz
Oscar 11 21 Aug 21:03:10 21:06:49 27° 68° (ENE) 21:10:29 145.825 FM, Beacon 2401.500 USB
FUNcube-1 21 Aug 21:04:50 21:05:19 10° 61° (ENE) 21:05:48 145.950 - 145.970 MHz USB
HO-68 21 Aug 21:06:02 21:13:11 87° 254° (WSW) 21:20:23 435.675 MHz FM
Oscar 10/S400 21 Aug 21:40:16 22:02:57 61° 170° (S) 06:40:50 145.825 - 145.975 CW/USB, Beacon 145.810 USB
ISS 21 Aug 21:44:22 21:47:04 23° 226° (SW) 21:49:45 145.800 FM
UKube-1 21 Aug 22:22:47 22:26:17 23° 265° (W) 22:29:47 145.840 MHz, 145.915 MHz
FUNcube-1 21 Aug 22:36:57 22:41:05 74° 258° (WSW) 22:45:17 145.950 - 145.970 MHz USB
Oscar 11 21 Aug 22:39:17 22:42:56 27° 265° (W) 22:46:37 145.825 FM, Beacon 2401.500 USB
HO-68 21 Aug 22:58:04 23:01:49 15° 271° (W) 23:05:35 435.675 MHz FM
MaSat-1 21 Aug 23:47:04 23:50:20 17° 46° (NE) 23:53:22 437.345 MHz
Saudisat 1A 22 Aug 00:26:55 00:30:23 23° 112° (ESE) 00:33:52 436.775 MHz
KITSAT 1 22 Aug 01:14:23 01:22:15 58° 114° (ESE) 01:30:08 435.175 FM
MaSat-1 22 Aug 01:23:13 01:28:03 66° 248° (WSW) 01:32:16 437.345 MHz
Oscar 16 22 Aug 01:23:17 01:26:50 18° 92° (E) 01:30:22 437.025 USB, Beacon 2401.1428
Saudisat 1A 22 Aug 02:05:36 02:09:44 39° 310° (NW) 02:13:55 436.775 MHz
Oscar 19 22 Aug 02:28:10 02:33:23 72° 102° (ESE) 02:38:34 437.125 CW, 437.150 USB
AO-Echo 22 Aug 02:34:05 02:38:29 37° 98° (E) 02:42:49 ?
ITAMSAT 1 22 Aug 02:38:34 02:43:25 39° 98° (E) 02:48:14 435.822 SSB
Gurwin Techsat 1B 22 Aug 02:38:52 02:42:27 18° 91° (E) 02:46:00 435.225 FM
JAS-1B 22 Aug 02:43:47 02:50:39 39° 94° (E) 02:56:30 435.800 - 435.900 CW/SSB
Uribyol 2 22 Aug 02:50:56 02:56:01 55° 101° (E) 03:01:05 436.500 FM
Oscar 16 22 Aug 03:01:26 03:06:31 55° 288° (WNW) 03:11:34 437.025 USB, Beacon 2401.1428
AO-27 22 Aug 03:04:46 03:09:57 71° 103° (ESE) 03:15:06 436.795 MHz FM
OPAL 22 Aug 03:09:57 03:13:41 22° 61° (ENE) 03:17:28 ?
KITSAT 1 22 Aug 03:10:38 03:18:00 37° 315° (NW) 03:25:25 435.175 FM
Sapphire 22 Aug 03:14:46 03:19:11 25° 47° (NE) 03:23:34 437.095 MHz 1200 baud AX-25 AFSK
TMSAT-1 22 Aug 03:35:44 03:40:48 44° 99° (E) 03:45:50 436.925 FM
PCSat 22 Aug 03:44:55 03:50:05 42° 54° (NE) 03:55:12 145.825 MHz
Oscar 19 22 Aug 04:09:08 04:12:06 16° 300° (WNW) 04:15:05 437.125 CW, 437.150 USB
AO-Echo 22 Aug 04:13:22 04:17:03 23° 295° (WNW) 04:20:42 ?
AO-7 22 Aug 04:15:41 04:22:35 28° 95° (E) 04:29:26 29.400 - 29.500 MHz
Gurwin Techsat 1B 22 Aug 04:17:34 04:22:46 57° 288° (WNW) 04:27:57 435.225 FM
ITAMSAT 1 22 Aug 04:18:28 04:22:42 26° 295° (WNW) 04:26:57 435.822 SSB
Uribyol 2 22 Aug 04:31:26 04:35:04 20° 297° (WNW) 04:38:43 436.500 FM
JAS-1B 22 Aug 04:34:24 04:41:13 37° 298° (WNW) 04:47:03 435.800 - 435.900 CW/SSB
AO-27 22 Aug 04:45:52 04:48:52 16° 300° (WNW) 04:51:51 436.795 MHz FM
OPAL 22 Aug 04:47:23 04:52:12 49° 258° (WSW) 04:57:08 ?
Uosat F 22 Aug 04:54:14 04:59:04 47° 100° (E) 05:03:52 435.120 FM
Sapphire 22 Aug 04:57:38 05:02:57 56° 246° (WSW) 05:08:13 437.095 MHz 1200 baud AX-25 AFSK
KITSAT 1 22 Aug 05:12:23 05:16:14 14° 342° (NNW) 05:20:05 435.175 FM
TMSAT-1 22 Aug 05:16:15 05:20:26 24° 296° (WNW) 05:24:37 436.925 FM
PCSat 22 Aug 05:28:43 05:33:18 28° 251° (WSW) 05:37:51 145.825 MHz
SO-50 22 Aug 05:50:13 05:54:23 40° 116° (ESE) 05:58:39 436.795 FM
Hamsat 22 Aug 05:55:09 05:58:15 19° 92° (E) 06:01:20 145.90 MHz
AO-7 22 Aug 06:07:42 06:15:52 64° 293° (WNW) 06:23:59 29.400 - 29.500 MHz
STRAND 1 22 Aug 06:15:29 06:20:17 43° 70° (ENE) 06:25:05 ?
Uosat F 22 Aug 06:33:49 06:37:31 21° 297° (WNW) 06:41:12 435.120 FM
JAS-2 22 Aug 06:48:29 06:53:34 56° 101° (E) 06:58:47 435.800 - 435.900 CW/SSB, 435.910 FM
UOSAT-12 22 Aug 07:04:04 07:07:13 18° 110° (ESE) 07:10:25 437.025 FM, 437.400 FM
SO-67 22 Aug 07:04:19 07:05:55 13° 92° (E) 07:07:32 435.3500 MHz FM
KITSAT 1 22 Aug 07:12:42 07:16:00 13° 14° (NNE) 07:19:19 435.175 FM
Hamsat 22 Aug 07:30:17 07:34:22 39° 289° (WNW) 07:38:24 145.90 MHz
SO-50 22 Aug 07:31:18 07:35:05 26° 315° (NW) 07:38:56 436.795 FM
STRAND 1 22 Aug 07:55:38 07:59:38 23° 266° (W) 08:03:39 ?
AO-7 22 Aug 08:02:47 08:07:03 15° 314° (NW) 08:11:20 29.400 - 29.500 MHz
JAS-2 22 Aug 08:34:53 08:38:17 18° 298° (WNW) 08:41:43 435.800 - 435.900 CW/SSB, 435.910 FM
HO-68 22 Aug 08:35:19 08:39:43 17° 90° (E) 08:44:06 435.675 MHz FM
RS-15 22 Aug 08:35:35 08:45:41 42° 109° (ESE) 08:55:34 29.354 - 29.394 USB, Beacon 29.352 USB
SO-67 22 Aug 08:35:56 08:39:08 35° 287° (WNW) 08:42:18 435.3500 MHz FM
UOSAT-12 22 Aug 08:42:26 08:46:57 53° 307° (NW) 08:51:34 437.025 FM, 437.400 FM
Saudisat 1A 22 Aug 08:52:52 08:56:25 23° 45° (NE) 08:59:57 436.775 MHz
KITSAT 1 22 Aug 09:07:26 09:14:32 32° 42° (NE) 09:21:34 435.175 FM
UKube-1 22 Aug 10:09:49 10:14:06 56° 101° (E) 10:18:21 145.840 MHz, 145.915 MHz
HO-68 22 Aug 10:21:02 10:28:13 85° 288° (WNW) 10:35:23 435.675 MHz FM
Oscar 11 22 Aug 10:25:54 10:30:11 53° 100° (E) 10:34:27 145.825 FM, Beacon 2401.500 USB
FUNcube-1 22 Aug 10:26:15 10:29:40 21° 94° (E) 10:33:06 145.950 - 145.970 MHz USB
UOSAT-12 22 Aug 10:27:07 10:28:12 11° 328° (NNW) 10:29:17 437.025 FM, 437.400 FM
Saudisat 1A 22 Aug 10:31:59 10:36:12 45° 243° (WSW) 10:40:23 436.775 MHz
RS-15 22 Aug 10:46:46 10:57:37 59° 311° (NW) 11:08:24 29.354 - 29.394 USB, Beacon 29.352 USB
KITSAT 1 22 Aug 11:02:33 11:10:34 70° 244° (WSW) 11:18:33 435.175 FM
JAS-1B 22 Aug 11:44:05 11:46:01 11° 44° (NE) 11:47:56 435.800 - 435.900 CW/SSB
UKube-1 22 Aug 11:47:30 11:49:50 14° 297° (WNW) 11:52:11 145.840 MHz, 145.915 MHz
FUNcube-1 22 Aug 12:02:05 12:06:08 36° 289° (WNW) 12:10:15 145.950 - 145.970 MHz USB
Oscar 11 22 Aug 12:03:25 12:05:56 15° 296° (WNW) 12:08:27 145.825 FM, Beacon 2401.500 USB
Oscar 19 22 Aug 12:09:07 12:11:45 14° 60° (ENE) 12:14:23 437.125 CW, 437.150 USB
HO-68 22 Aug 12:10:31 12:14:55 18° 307° (NW) 12:19:19 435.675 MHz FM
Uribyol 2 22 Aug 12:33:56 12:35:33 11° 57° (ENE) 12:37:09 436.500 FM
Oscar 16 22 Aug 12:40:18 12:44:37 28° 66° (ENE) 12:48:57 437.025 USB, Beacon 2401.1428
AO-27 22 Aug 12:46:42 12:49:30 15° 60° (ENE) 12:52:18 436.795 MHz FM
ISS 22 Aug 12:51:54 12:53:14 12° 129° (SE) 12:54:35 145.800 FM
KITSAT 1 22 Aug 13:01:36 13:04:29 12° 262° (W) 13:07:22 435.175 FM
RS-15 22 Aug 13:04:35 13:12:58 24° 341° (NNW) 13:21:26 29.354 - 29.394 USB, Beacon 29.352 USB
JAS-1B 22 Aug 13:25:11 13:34:18 44° 64° (ENE) 13:42:52 435.800 - 435.900 CW/SSB
Oscar 19 22 Aug 13:45:16 13:50:24 79° 257° (WSW) 13:55:36 437.125 CW, 437.150 USB
AO-Echo 22 Aug 13:46:46 13:51:47 53° 72° (ENE) 13:56:41 ?
ITAMSAT 1 22 Aug 13:56:43 14:01:49 61° 72° (ENE) 14:06:56 435.822 SSB
Gurwin Techsat 1B 22 Aug 13:59:54 14:04:27 30° 66° (ENE) 14:09:00 435.225 FM
Uribyol 2 22 Aug 14:09:02 14:14:12 84° 75° (ENE) 14:19:23 436.500 FM
Oscar 16 22 Aug 14:19:05 14:23:48 37° 263° (W) 14:28:34 437.025 USB, Beacon 2401.1428
SO-50 22 Aug 14:21:19 14:25:51 42° 51° (NE) 14:30:26 436.795 FM
AO-27 22 Aug 14:23:11 14:28:22 76° 257° (WSW) 14:33:35 436.795 MHz FM
ISS 22 Aug 14:26:13 14:29:32 80° 327° (NNW) 14:32:52 145.800 FM
TMSAT-1 22 Aug 14:56:39 15:01:54 71° 74° (ENE) 15:07:11 436.925 FM
MaSat-1 22 Aug 15:11:24 15:15:58 53° 110° (ESE) 15:20:57 437.345 MHz
AO-7 22 Aug 15:14:43 15:22:20 41° 61° (ENE) 15:29:56 29.400 - 29.500 MHz
JAS-1B 22 Aug 15:14:54 15:24:30 53° 261° (W) 15:33:41 435.800 - 435.900 CW/SSB
RS-15 22 Aug 15:22:13 15:30:36 24° 18° (NNE) 15:39:07 29.354 - 29.394 USB, Beacon 29.352 USB
AO-Echo 22 Aug 15:27:16 15:30:49 19° 267° (W) 15:34:19 ?
UOSAT-12 22 Aug 15:32:23 15:36:01 21° 42° (NE) 15:39:37 437.025 FM, 437.400 FM
ITAMSAT 1 22 Aug 15:38:33 15:41:43 16° 269° (W) 15:44:54 435.822 SSB
Gurwin Techsat 1B 22 Aug 15:39:27 15:44:17 36° 263° (W) 15:49:10 435.225 FM
Uribyol 2 22 Aug 15:52:47 15:54:18 11° 271° (W) 15:55:49 436.500 FM
SO-50 22 Aug 16:02:18 16:06:13 25° 247° (WSW) 16:10:10 436.795 FM
ISS 22 Aug 16:04:09 16:06:41 20° 344° (NNW) 16:09:13 145.800 FM
Uosat F 22 Aug 16:07:36 16:12:35 68° 73° (ENE) 16:17:34 435.120 FM
TMSAT-1 22 Aug 16:39:31 16:42:20 14° 270° (W) 16:45:09 436.925 FM
MaSat-1 22 Aug 16:49:34 16:53:26 23° 310° (NW) 16:57:30 437.345 MHz
Hamsat 22 Aug 16:49:41 16:52:03 15° 64° (ENE) 16:54:27 145.90 MHz
OPAL 22 Aug 16:56:49 17:01:47 42° 101° (E) 17:06:42 ?
JAS-2 22 Aug 17:01:08 17:06:29 28° 66° (ENE) 17:11:22 435.800 - 435.900 CW/SSB, 435.910 FM
AO-7 22 Aug 17:07:01 17:14:58 47° 259° (W) 17:22:58 29.400 - 29.500 MHz
UOSAT-12 22 Aug 17:11:53 17:16:33 58° 241° (WSW) 17:21:07 437.025 FM, 437.400 FM
RS-15 22 Aug 17:35:15 17:46:06 57° 48° (NE) 17:57:18 29.354 - 29.394 USB, Beacon 29.352 USB
ISS 22 Aug 17:42:20 17:44:21 15° 5° (N) 17:46:23 145.800 FM
Uosat F 22 Aug 17:49:18 17:51:50 14° 270° (W) 17:54:22 435.120 FM
Sapphire 22 Aug 17:58:14 18:01:49 18° 105° (ESE) 18:05:25 437.095 MHz 1200 baud AX-25 AFSK
